CAPE
566 642 629 733 800 901 877 991 729 586 543 596 253 46 48 8 0 0 18 10 99 81 36 21 38 42 18 19 38 12 54 98 232
789 785 561 506 579 747 696 544 583 517 509 395 111 24 15 0 0 0 2 42 65 62 39 23 26 61 26 29 34 51 56 46 162
643 636 576 497 463 636 673 695 590 626 465 212 51 32 9 0 0 15 9 42 54 64 43 19 16 32 20 16 43 61 83 70 86
723 620 585 470 429 561 602 634 581 494 333 143 28 19 1 0 0 2 12 51 45 44 34 5 24 29 15 24 44 57 77 85 86
326 211 348 319 287 412 534 580 592 353 120 25 9 5 0 0 0 1 33 52 31 10 17 20 20 14 22 34 63 65 70 78 81
67 45 85 109 105 312 480 459 346 69 35 15 8 0 0 0 0 0 67 38 37 40 32 14 37 31 22 56 75 68 62 65 82
7 11 43 53 26 103 363 230 54 15 9 2 0 0 0 0 0 18 71 50 24 18 29 37 35 19 23 45 57 61 38 55 65
0 34 57 28 0 17 92 35 33 14 6 0 0 0 0 0 0 12 51 36 25 22 21 12 24 18 21 22 38 49 38 37 52
14 24 26 6 19 3 19 0 13 13 15 0 0 0 0 0 0 0 23 44 38 16 19 18 13 48 32 25 22 27 21 13 36
7 10 2 4 0 0 0 0 0 8 15 5 1 0 0 0 0 0 14 39 37 10 29 59 10 36 31 51 50 24 19 0 20
2 5 0 0 0 0 0 0 4 5 3 1 0 0 0 0 0 9 20 43 35 31 21 18 24 45 62 51 42 45 29 33 29
0 3 0 0 0 0 0 0 3 26 29 11 2 7 11 15 14 10 35 35 38 43 19 9 21 30 35 35 36 28 23 21 36
0 0 0 0 0 0 0 0 1 16 25 16 2 0 8 15 11 3 0 0 0 16 16 11 6 45 22 13 19 35 20 16 21
0 0 0 0 0 0 0 0 0 0 2 0 0 0 0 4 0 0 0 0 0 0 0 14 8 22 23 15 9 19 26 22 15
0 0 0 0 0 0 0 0 0 0 0 0 0 0 0 0 0 0 0 0 0 0 0 2 0 0 52 24 10 11 16 46 29
0 0 0 0 0 0 0 0 0 0 0 0 0 0 0 0 0 0 0 0 0 0 0 0 0 0 27 38 20 19 28 17 8
0 0 0 0 0 0 0 0 0 0 0 0 0 0 0 0 0 0 0 0 0 0 0 9 0 0 0 21 35 34 8 14 12
0 0 0 0 0 0 0 0 0 0 0 0 0 0 0 0 0 0 0 0 0 0 0 0 4 2 0 6 12 22 21 12 16
0 0 0 0 0 0 0 0 0 0 0 0 0 0 0 0 0 0 0 0 0 0 0 0 0 0 0 0 0 20 29 14 20
0 0 0 0 0 0 0 0 0 0 0 0 0 0 0 0 0 0 0 0 0 0 0 0 0 0 0 0 0 0 30 30 16
CIN
-27 -4 -11 -11 -33 -12 -7 -13 -66 -81 -101 -65 -147 -170 -30 -59 -0 -0 -16 -12 -141 -174 -0 -0 -0 -1 -0 -1 -1 -1 -0 -59 -30
-12 -10 -39 -33 -21 -30 -18 -61 -68 -98 -99 -137 -261 -50 -87 -0 -0 -0 -7 -14 -0 -0 -0 -0 -0 -0 -0 -1 -0 -0 -0 -0 -33
-11 -37 -23 -25 -30 -16 -7 -31 -59 -93 -110 -223 -188 -75 -97 -0 -0 -37 -23 -5 -1 -0 -2 -1 -1 -2 -0 -0 -2 -0 -152 -15 -66
-11 -26 -21 -22 -20 -21 -10 -20 -69 -107 -186 -280 -63 -102 -31 -0 -0 -42 -27 -2 -3 -4 -2 -0 -0 -1 -0 -0 -0 -0 -37 -29 -49
-68 -117 -65 -39 -53 -26 -18 -23 -58 -148 -322 -53 -94 -110 -0 -0 -0 -22 -17 -1 -1 -2 -0 -0 -0 -0 -1 -2 -0 -0 -0 -0 -0
-188 -216 -159 -97 -119 -44 -32 -38 -104 -308 -71 -94 -121 -0 -0 -0 -0 -0 -3 -0 -0 -0 -1 -0 -0 -0 -1 -1 -1 -0 -0 -0 -0
-241 -254 -165 -138 -177 -102 -52 -112 -128 -77 -92 -135 -61 -0 -0 -0 -0 -23 -1 -0 -0 -0 -1 -0 -2 -0 -2 -5 -0 -0 -0 -0 -0
-0 -194 -201 -220 -0 -68 -86 -61 -51 -75 -85 -0 -0 -0 -0 -0 -0 -20 -4 -1 -0 -1 -0 -0 -0 -1 -1 -1 -3 -0 -0 -0 -0
-1 -0 -99 -0 -1 -0 -46 -2 -103 -74 -96 -0 -0 -0 -0 -0 -0 -1 -9 -3 -1 -0 -0 -0 -0 -0 -0 -0 -0 -0 -0 -0 -0
-1 -0 -2 -0 -0 -0 -0 -0 -45 -79 -90 -98 -78 -0 -0 -0 -0 -0 -18 -4 -3 -0 -1 -0 -0 -1 -0 -0 -0 -0 -0 -0 -0
-1 -0 -0 -0 -0 -0 -0 -0 -94 -79 -89 -59 -0 -0 -0 -0 -0 -31 -11 -8 -2 -0 -0 -0 -1 -0 -0 -0 -2 -0 -0 -0 -0
-0 -1 -0 -0 -0 -0 -0 -0 -109 -50 -58 -93 -91 -89 -59 -55 -55 -60 -10 -9 -11 -1 -0 -0 -3 -0 -0 -0 -0 -0 -0 -0 -4
-0 -1 -0 -0 -0 -0 -0 -0 -14 -62 -44 -71 -74 -0 -67 -64 -64 -67 -0 -0 -0 -6 -2 -0 -8 -0 -0 -0 -0 -0 -0 -0 -0
-0 -0 -0 -0 -0 -0 -0 -0 -0 -19 -61 -26 -0 -0 -0 -96 -0 -0 -0 -0 -0 -0 -0 -8 -11 -3 -0 -0 -0 -0 -0 -0 -0
-0 -0 -0 -0 -0 -0 -0 -0 -0 -0 -0 -0 -0 -0 -0 -0 -20 -0 -0 -0 -0 -0 -0 -24 -0 -2 -0 -0 -0 -0 -0 -0 -1
-0 -0 -0 -0 -0 -0 -0 -0 -0 -0 -0 -0 -0 -0 -0 -0 -0 -0 -0 -0 -0 -0 -0 -0 -0 -0 -6 -0 -0 -0 -0 -0 -0
-0 -0 -0 -0 -0 -0 -0 -0 -0 -0 -0 -0 -0 -0 -0 -0 -0 -0 -0 -0 -0 -0 -0 -39 -0 -0 -25 -4 -3 -0 -0 -0 -0
-0 -0 -0 -0 -0 -0 -0 -0 -0 -0 -0 -0 -0 -0 -0 -0 -0 -0 -0 -0 -0 -0 -0 -0 -48 -57 -48 -10 -13 -5 -1 -0 -0
-0 -0 -0 -0 -0 -0 -0 -0 -0 -0 -0 -0 -0 -0 -0 -0 -0 -0 -0 -0 -0 -0 -0 -0 -0 -0 -0 -0 -0 -5 -6 -0 -0
-0 -0 -0 -0 -0 -0 -0 -0 -0 -0 -0 -0 -0 -0 -0 -0 -0 -0 -0 -0 -0 -0 -0 -0 -0 -0 -0 -0 -0 -0 -11 -0 -0
Wind_Speed
20 20 20 18 19 19 18 15 19 20 18 21 21 19 15 13 9 7 10 6 18 19 20 19 17 16 17 17 16 14 17 17 17
21 20 19 17 17 19 17 17 19 17 18 19 20 16 12 8 7 6 6 9 15 18 19 19 16 17 18 15 15 17 15 16 17
21 22 19 18 18 18 17 17 18 19 20 20 19 17 14 8 7 6 6 11 13 16 18 17 14 16 17 13 15 15 15 15 17
22 22 21 20 19 19 17 16 18 20 20 18 16 17 14 9 5 6 4 12 13 15 16 14 15 16 17 14 14 12 19 18 17
22 20 20 20 20 18 17 16 17 19 20 18 17 15 15 8 5 4 6 16 16 13 15 15 16 15 14 15 15 16 20 18 17
16 15 18 19 20 19 16 16 17 18 17 20 15 12 6 7 3 2 12 16 17 15 16 17 16 17 13 15 18 18 19 19 18
12 13 16 19 19 18 16 17 17 13 6 8 11 5 6 5 4 4 14 18 18 16 15 17 18 17 13 16 18 17 17 18 18
7 7 8 8 11 7 9 12 7 9 6 5 7 6 6 3 4 6 14 16 18 16 15 15 17 14 14 14 15 16 16 16 17
9 8 9 9 6 8 4 5 7 9 8 10 10 6 5 3 3 6 12 14 17 17 15 14 17 14 15 13 15 13 16 15 15
11 10 9 9 7 7 6 5 7 9 9 10 11 8 6 5 3 3 10 14 15 15 14 16 17 13 17 16 17 16 16 13 13
10 13 9 9 8 7 6 7 7 9 9 9 9 9 6 5 5 4 7 12 16 15 15 13 14 15 18 16 17 18 18 15 13
13 12 9 9 9 8 6 7 5 8 8 11 9 9 9 7 7 4 6 7 9 14 16 13 10 17 15 15 16 15 15 14 14
15 12 10 10 9 8 8 8 6 8 8 8 8 6 7 7 8 7 6 4 3 8 13 12 10 14 17 14 14 14 15 13 14
15 13 12 11 10 8 9 4 8 7 8 9 7 6 7 8 6 8 7 6 4 4 9 10 7 5 17 14 14 13 13 15 14
16 13 14 12 9 8 8 11 5 7 9 9 6 4 5 5 6 6 5 5 4 5 5 4 5 6 14 15 14 15 12 16 15
19 14 15 14 12 12 11 8 12 6 10 9 6 4 4 6 3 5 5 5 4 5 5 4 2 3 8 15 14 14 13 14 13
20 19 16 18 13 13 12 12 6 4 10 9 5 4 2 3 1 4 5 6 4 4 4 6 6 4 3 5 13 14 13 13 14
22 22 18 18 16 13 15 13 12 10 6 14 6 5 5 6 2 3 4 6 4 4 4 4 5 5 4 5 7 11 14 15 14
22 21 21 19 15 16 15 13 13 11 12 8 7 3 5 6 4 1 2 4 5 5 3 4 4 4 3 5 6 8 11 15 15
22 22 22 20 15 17 17 16 15 12 12 11 5 2 2 3 4 5 3 1 3 4 4 4 4 5 5 4 5 8 10 14 13
Wind_Direction
154 148 143 139 135 129 126 128 117 118 120 113 110 105 101 96 86 67 78 78 89 88 86 82 83 89 84 78 78 81 69 70 73
155 148 137 144 136 125 136 126 118 126 128 121 114 105 90 93 93 91 81 79 90 92 88 84 72 86 79 76 72 80 78 77 78
155 144 145 145 136 137 141 133 125 126 129 123 121 117 102 85 84 88 91 88 94 96 91 84 84 82 86 83 68 73 84 81 81
157 152 152 150 145 145 147 142 131 132 128 121 117 106 106 99 93 97 100 107 104 95 89 93 98 85 87 91 73 72 84 77 79
158 154 155 154 150 150 150 147 141 134 125 117 111 111 103 98 97 101 108 117 102 107 103 100 92 95 100 87 76 94 83 78 78
154 155 158 158 153 153 153 147 139 131 122 119 113 111 107 105 102 112 110 124 115 112 107 103 106 104 96 77 75 82 80 74 74
156 154 156 160 155 157 155 142 127 122 119 111 106 108 109 109 123 119 125 119 114 108 107 96 98 97 103 85 83 81 82 77 73
152 156 154 156 150 151 153 133 136 132 135 112 120 117 109 115 106 113 105 114 116 122 109 106 95 108 101 100 87 84 88 82 74
157 165 162 156 154 148 153 139 137 136 134 131 130 114 115 117 109 127 132 117 121 118 122 113 110 109 116 107 106 101 87 86 78
158 168 164 163 150 149 155 140 135 132 136 133 131 127 117 114 117 113 132 125 123 121 127 117 115 110 112 97 109 108 99 92 88
163 167 166 152 160 148 154 150 133 135 138 133 136 133 128 124 127 126 128 134 132 130 128 122 120 106 104 101 99 88 94 92 95
162 168 167 161 158 154 140 139 123 140 141 140 143 144 143 142 134 123 123 130 111 123 116 124 131 125 115 107 104 106 100 94 82
164 166 171 168 161 164 152 146 149 144 144 144 145 148 141 138 130 122 118 109 104 107 121 141 143 138 126 122 119 108 119 110 100
166 168 167 172 167 165 153 132 149 145 144 143 145 142 133 133 127 113 110 117 122 119 128 145 116 125 124 123 129 123 107 122 116
168 169 164 170 170 158 145 148 149 147 147 135 123 116 119 122 137 125 120 129 148 131 118 137 131 140 130 125 126 126 125 116 113
171 167 169 171 177 171 151 141 152 146 154 115 103 64 75 123 131 124 137 147 158 138 139 150 162 138 138 134 133 125 128 113 118
174 170 175 176 175 169 160 161 152 146 162 147 125 128 41 38 120 137 155 152 159 156 159 140 151 151 135 155 144 137 129 139 130
179 173 175 176 176 174 174 169 167 170 163 160 137 137 188 138 159 211 165 154 166 177 162 157 143 144 139 127 141 149 138 139 135
182 178 176 174 174 176 175 175 172 165 168 156 152 125 146 158 161 238 215 170 174 188 203 178 172 149 134 143 153 153 150 150 146
179 177 177 175 176 175 170 173 171 175 171 181 161 123 130 112 130 160 175 314 209 195 186 185 175 174 166 169 181 166 181 166 158